This is the latest recevied weather packets stored in our database for station/object KROG. If no packets are shown the sender has not sent any weather packets the latest 1 day(s).
| Time | Temp. | Humidity | Pressure | Rain* | Wind** | Luminosity | Snow |
|---|---|---|---|---|---|---|---|
| 1777990416 | 15.56° C | 93% | 1006.4 hPa | - | 3.58 m/s, 100° | - | - |
| 1777989815 | 15.56° C | 93% | 1006.8 hPa | - | 4.47 m/s, 70° | - | - |
| 1777989215 | 15.56° C | 93% | 1006.8 hPa | - | 4.02 m/s, 30° | - | - |
| 1777988618 | 15.56° C | 93% | 1006.1 hPa | - | 1.79 m/s, 110° | - | - |
| 1777988016 | 15.56° C | 93% | 1006.1 hPa | - | 1.79 m/s, 110° | - | - |
| 1777987417 | 15.56° C | 93% | 1006.1 hPa | - | 1.79 m/s, 110° | - | - |
| 1777986815 | 15.56° C | 93% | 1006.1 hPa | - | 1.79 m/s, 110° | - | - |
| 1777986215 | 15.56° C | 93% | 1006.1 hPa | - | 1.79 m/s, 110° | - | - |
| 1777985618 | 15.56° C | 93% | 1005.4 hPa | - | 4.02 m/s, 120° | - | - |
| 1777985019 | 15.56° C | 93% | 1005.4 hPa | - | 4.02 m/s, 120° | - | - |
| 1777984415 | 15.56° C | 93% | 1005.4 hPa | - | 4.02 m/s, 120° | - | - |
| 1777983813 | 15.56° C | 93% | 1005.4 hPa | - | 4.02 m/s, 120° | - | - |
| 1777983213 | 15.56° C | 93% | 1005.4 hPa | - | 4.02 m/s, 120° | - | - |
| 1777982618 | 15.56° C | 93% | 1005.4 hPa | - | 4.02 m/s, 120° | - | - |
| 1777982013 | 15.56° C | 93% | 1005.4 hPa | - | 4.02 m/s, 140° | - | - |
| 1777981419 | 15.56° C | 93% | 1005.4 hPa | - | 4.02 m/s, 140° | - | - |
| 1777980817 | 15.56° C | 93% | 1005.4 hPa | - | 4.02 m/s, 140° | - | - |
| 1777980219 | 15.56° C | 93% | 1005.4 hPa | - | 4.02 m/s, 140° | - | - |
| 1777979619 | 15.56° C | 93% | 1005.4 hPa | - | 4.02 m/s, 140° | - | - |
| 1777979018 | 15.56° C | 93% | 1005.4 hPa | - | 4.02 m/s, 140° | - | - |
| 1777978420 | 15° C | 93% | 1006.4 hPa | - | 2.68 m/s, 110° | - | - |
| 1777977817 | 15° C | 93% | 1006.4 hPa | - | 2.68 m/s, 110° | - | - |
| 1777977217 | 15° C | 93% | 1006.4 hPa | - | 2.68 m/s, 110° | - | - |
| 1777976615 | 15° C | 93% | 1006.4 hPa | - | 2.68 m/s, 110° | - | - |
| 1777976017 | 15° C | 93% | 1006.4 hPa | - | 2.68 m/s, 110° | - | - |
* Rain since midnight (hover to see other rain measurements)
** Current wind speed in m/s (hover to see current wind gust speed)